Content
SEND FEEDBACK

Daily
Averages
Monthly
Summary
United States of America

GLENVIEW, ILLINOIS


Home > North America > United States > Illinois
Elevation: 653 feet     Latitude: 42 05N     Longitude: 087 50W

WEATHER
 
SELECT A DAY
Number of Records: 197,256;   Date Range: 7/8/95 - 9/30/14
 
SHARE

PRINT THIS DATA

[ ← Previous Day ]
WEATHER ALMANAC - FEBRUARY 4, 2013
[ Next Day → ]
[ °C ]   °F
Weather ElementAverageHighLow
Temperature22.5 °F28 °F (11:52 am)12.9 °F (11:52 pm)
Dewpoint18.5 °F23 °F (8:38 am)5 °F (11:52 pm)
Humidity85.1 %93 % (2:02 am)70 % (10:52 pm)
Barometer29.94 in30.02 in (1:52 am)29.88 in (1:19 pm)
Wind Speed6.3 mph13.8 mph (1:19 pm)
Wind Gust20.7 mph (1:19 pm)
Weather ElementAverage
Visibility5.5 mi
Wind DirectionSE (140.3 °)

Weather ElementTotal
Precipitation---
Heating Degree Days44.6 (Base 65)
Averaged from 35 records on February 4, 2013
WEATHER CONDITIONS BREAKOUT
WIND DIRECTION BREAKOUT
WEATHER BY HOUR - FEBRUARY 4, 2013
[ °C ]   °F
Local TimeTemperatureDewpointHumidityBarometerVisibilityWind DirectionWind SpeedGust SpeedPrecipitationEventsConditions
1:52 AM19.9 °F18.0 °F92 %30.02 in2.0 miEast (100°)3.5 mph0.00 inSnowLight Snow
2:02 AM19.4 °F17.6 °F93 %29.98 in1.8 miEast (100°)3.5 mph0.00 inSnowLight Snow
2:52 AM19.9 °F18.0 °F92 %29.99 in1.0 miEast (100°)3.5 mph0.00 inSnowLight Snow
3:07 AM19.4 °F17.6 °F93 %29.95 in0.8 miEast (90°)3.5 mph0.00 inSnowLight Snow
5:00 AM21.2 °F19.4 °F93 %29.92 in1.0 miCalm0.00 inSnowLight Snow
5:30 AM21.2 °F19.4 °F93 %29.93 in0.8 miNE (50°)3.5 mph0.00 inSnowLight Snow
5:52 AM21.9 °F19.0 °F89 %29.96 in1.0 miNE (40°)5.8 mph0.00 inSnowLight Snow
6:01 AM21.2 °F19.4 °F93 %29.92 in1.5 miENE (60°)4.6 mph0.00 inSnowLight Snow
6:22 AM21.2 °F19.4 °F93 %29.92 in1.0 miNE (50°)5.8 mph0.00 inSnowLight Snow
6:32 AM21.2 °F19.4 °F93 %29.92 in1.2 miNE (40°)4.6 mph0.00 inSnowLight Snow
6:52 AM23.0 °F21.0 °F92 %29.94 in1.8 miENE (60°)5.8 mph0.00 inSnowLight Snow
7:49 AM24.8 °F21.2 °F86 %29.90 in7.0 miNE (50°)6.9 mph0.00 inOvercast
7:52 AM24.1 °F21.9 °F91 %29.93 in7.0 miENE (60°)5.8 mph0.00 inOvercast
8:38 AM24.8 °F23.0 °F93 %29.90 in1.8 miENE (70°)4.6 mph0.00 inSnowLight Snow
8:44 AM24.8 °F23.0 °F93 %29.90 in1.2 miNE (50°)4.6 mph0.00 inSnowLight Snow
8:52 AM25.0 °F23.0 °F92 %29.93 in2.0 miNE (50°)4.6 mph0.00 inSnowLight Snow
9:49 AM26.6 °F23.0 °F86 %29.89 in8.0 miNE (50°)3.5 mph0.00 inOvercast
9:52 AM27.0 °F23.0 °F85 %29.92 in8.0 miENE (60°)4.6 mph0.00 inOvercast
10:52 AM27.0 °F21.9 °F81 %29.91 in6.0 miNE (40°)3.5 mphHaze
11:52 AM28.0 °F23.0 °F81 %29.91 in5.0 miNNE (30°)9.2 mph0.00 inSnowLight Snow
12:52 PM27.0 °F23.0 °F85 %29.90 in7.0 miNorth (10°)11.5 mph0.00 inOvercast
1:19 PM26.6 °F21.2 °F80 %29.88 in9.0 miNorth (10°)13.8 mph20.7 mphOvercast
1:52 PM28.0 °F23.0 °F81 %29.91 in4.0 miNNE (20°)11.5 mph0.00 inSnowLight Snow
2:52 PM27.0 °F21.0 °F78 %29.93 in9.0 miNNE (30°)10.4 mph0.00 inOvercast
3:52 PM25.0 °F19.9 °F81 %29.91 in6.0 miNorth (350°)8.1 mphHaze
4:01 PM24.8 °F19.4 °F80 %29.88 in9.0 miNorth (360°)9.2 mph19.6 mphOvercast
4:52 PM23.0 °F18.0 °F81 %29.94 in9.0 miNorth (350°)11.5 mphOvercast
5:52 PM21.9 °F17.1 °F82 %29.97 in10.0 miNNW (340°)9.2 mphOvercast
6:52 PM19.9 °F15.1 °F81 %29.99 in10.0 miNNW (330°)9.2 mphOvercast
7:52 PM19.0 °F12.9 °F77 %29.99 in10.0 miNNW (340°)5.8 mphOvercast
8:06 PM19.4 °F12.2 °F74 %29.96 in10.0 miNNW (340°)4.6 mphScattered Clouds
8:52 PM18.0 °F12.0 °F78 %30.01 in10.0 miNNW (340°)8.1 mphClear
9:52 PM17.1 °F10.0 °F74 %30.00 in10.0 miNNW (330°)9.2 mphClear
10:52 PM15.1 °F7.0 °F70 %29.99 in10.0 miNNW (330°)4.6 mphClear
11:52 PM12.9 °F5.0 °F71 %30.00 in10.0 miWest (280°)3.5 mphClear
Hourly data recorded from KPWK, located miles away from Glenview, Illinois







STORIES FROM OUR PARTNERS